Regional Weather Roundup
Issued by NWS Cleveland, OH

Home | Current Version | Previous Version | Graphics & Text | Print | Product List | Glossary On
Versions: 1 2 3 4 5 6 7 8 9 10 11 12 13 14 15 16 17 18 19 20 21 22 23 24 25 26 27 28 29 30 31 32 33 34 35 36 37 38 39 40 41 42 43 44 45 46 47 48 49 50
000
ASUS41 KCLE 241810
RWRCLE
OHIO REGIONAL WEATHER ROUNDUP
NATIONAL WEATHER SERVICE WILMINGTON, OH
200 PM EDT SAT SEP 24 2016

NOTE: "FAIR" INDICATES FEW OR NO CLOUDS BELOW 12,000 FEET WITH NO
SIGNIFICANT WEATHER AND/OR OBSTRUCTIONS TO VISIBILITY.

OHZ001>008-015>018-024>027-034-035-043-044-241900-
   NORTHWEST OHIO

CITY           SKY/WX    TMP DP  RH WIND       PRES   REMARKS
DEFIANCE       CLOUDY    72  57  59 NE8       30.22F
FINDLAY        CLOUDY    73  58  59 NE12      30.19F
TOLEDO EXPRESS CLOUDY    69  58  67 E10       30.22F
TOLEDO EXEC    CLOUDY    68  58  70 NE9G18    30.24F
LIMA           CLOUDY    71  63  75 NE9       30.21F
$$

OHZ009>014-019>023-028>033-038-089-241900-
   NORTHEAST OHIO

CITY           SKY/WX    TMP DP  RH WIND       PRES   REMARKS
CLE-HOPKINS    FAIR      72  51  47 NE10      30.23F
CLE-LAKEFRONT  LGT RAIN  69  53  56 N17       30.21S
CUY CO. ARPT   MOSUNNY   72  55  56 NE7       30.22F
LORAIN-ELYRIA  PTSUNNY   71  51  49 E9        30.22F
ASHTABULA      FAIR      67  50  54 NE9       30.23F
AKRON-CANTON   FAIR      72  53  51 NE9G18    30.20F
WOOSTER        FAIR      72  54  53 NE6       30.20F
MANSFIELD      PTSUNNY   72  59  63 N8        30.20F
YOUNGSTOWN     FAIR      69  49  48 N8        30.20F
$$

OHZ042-051>053-060>062-070>072-077>081-241900-
  SOUTHWEST OHIO

CITY           SKY/WX    TMP DP  RH WIND       PRES   REMARKS
CINC-COVINGTON FAIR      82  68  62 NE7       30.16S
CINC-LUNKEN    FAIR      80  69  69 NE8       30.16S
HAMILTON       PTSUNNY   77  67  71 VRB7      30.18S
DAYTON         CLOUDY    74  65  73 NE7       30.19F
WRIGHT-PAT AFB CLOUDY    75  66  75 N8        30.17F
DAYTON GENERAL CLOUDY    75  65  70 NE7       30.17F
WILMINGTON     PTSUNNY   78  66  66 VRB7      30.17F
$$

OHZ036-037-039>041-045>050-054>059-063>069-073>076-082>088-241900-
  CENTRAL AND SOUTHEAST OHIO

CITY           SKY/WX    TMP DP  RH WIND       PRES   REMARKS
COLUMBUS       CLOUDY    76  66  71 NE10      30.16F
OSU AIRPORT    CLOUDY    76  65  68 N8        30.17F
BOLTON FIELD   CLOUDY    75  64  69 NE6       30.18F
RICKENBACK AFB CLOUDY    76  64  66 N6        30.16F
NEWARK         CLOUDY    76  62  62 VRB6      30.17F
MARION         PTSUNNY   77  58  51 N14       30.19F
LANCASTER      CLOUDY    78  63  59 VRB6      30.17F
ZANESVILLE     CLOUDY    77  60  55 NE7       30.16F
NEW PHILLY     FAIR      77  55  46 N9        30.18F
$$




USA.gov is the U.S. government's official web portal to all federal, state and local government web resources and services.